Temp
25 24 27 30 27 23 26 32 34 34 33 35 34 33 30 30 29 24 28 28 26 24 21 21 21 21 21 21 21 21 21 21 21 21 21 21 21 21 21 21 21 21 21 21 21 21 21 21 21
26 30 31 31 25 23 24 33 32 34 35 35 33 31 30 27 28 27 27 28 27 24 22 22 21 21 21 21 21 21 21 21 21 21 21 21 21 21 21 21 21 21 21 21 21 21 21 21 22
25 30 30 28 23 24 25 33 34 35 35 34 33 32 30 27 29 28 28 27 27 25 23 22 21 21 21 21 21 20 21 21 21 22 21 21 21 21 21 21 21 21 21 21 21 21 22 22 22
30 32 29 29 25 27 29 34 34 34 34 34 33 29 29 28 29 28 28 26 26 24 22 22 21 21 21 21 20 21 20 21 22 22 21 21 21 22 21 21 21 21 21 21 21 22 22 22 22
32 32 24 23 25 24 34 34 34 34 34 34 32 28 27 28 27 27 27 25 25 23 21 21 21 21 20 20 20 20 20 21 22 23 21 21 21 21 21 21 21 21 21 21 22 22 23 23 23
31 25 26 25 23 24 30 35 35 34 34 33 31 29 26 27 27 27 26 25 24 23 23 21 21 20 20 20 21 20 20 21 22 22 21 21 21 21 21 21 21 21 21 21 22 23 23 23 22
32 30 29 27 23 24 32 35 34 34 34 33 33 27 27 28 27 26 25 24 24 24 22 21 20 20 20 20 20 21 21 21 22 21 21 21 21 21 21 21 21 21 21 21 23 22 22 22 22
34 31 28 28 26 24 27 34 35 34 33 35 34 28 26 27 26 26 25 25 23 23 22 21 20 20 20 20 20 21 22 22 22 21 21 22 22 21 21 22 22 21 21 21 21 22 22 22 22
35 24 26 28 26 23 28 32 34 34 33 33 33 31 29 27 27 27 25 24 23 23 23 22 21 21 21 21 22 21 21 21 22 21 21 22 22 23 23 23 23 22 22 22 22 22 23 22 22
31 28 29 29 25 23 26 29 34 33 32 32 31 31 29 27 27 26 26 25 23 24 24 23 22 22 22 22 21 20 20 22 22 23 22 22 23 23 24 24 24 23 22 22 22 23 22 22 22
33 30 29 27 27 26 27 30 34 33 32 32 30 30 31 28 27 26 26 24 25 23 24 23 23 23 23 21 21 21 21 22 22 22 23 24 24 25 26 26 25 23 23 22 22 22 23 23 23
30 31 29 28 25 23 22 27 33 33 33 34 32 32 32 31 29 29 27 25 24 23 23 23 23 23 22 22 22 22 21 23 23 24 24 24 25 26 26 26 26 22 24 21 21 23 23 24 25
27 30 30 27 26 24 23 27 29 33 34 33 33 32 32 32 29 28 26 24 24 23 22 23 23 23 22 23 23 23 23 23 24 25 25 25 25 26 26 26 25 23 21 20 26 22 26 26 26
31 31 30 28 27 27 27 24 27 33 33 33 32 32 32 32 31 27 26 24 22 23 23 24 23 23 22 22 22 23 23 24 25 26 26 25 26 27 26 27 27 28 26 26 27 27 27 27 27
33 31 30 29 29 28 28 25 24 28 33 33 33 33 32 32 30 26 26 25 23 24 23 22 24 23 23 24 24 23 25 25 27 26 25 25 24 26 25 26 27 27 27 27 28 28 26 27 27
33 30 29 30 29 28 29 24 25 25 27 33 33 33 32 32 31 29 27 24 25 24 24 24 24 24 23 23 23 24 25 25 27 27 25 25 24 25 26 26 27 26 27 28 28 28 27 28 28
25 25 28 30 31 29 30 26 25 26 27 31 32 33 32 32 31 30 27 26 24 24 24 24 25 24 24 24 24 24 26 26 26 28 26 25 25 25 25 27 27 27 27 28 27 26 28 28 28
21 24 27 28 31 30 30 28 27 27 30 31 32 32 31 32 31 30 28 27 26 24 25 25 24 24 24 24 23 25 25 26 27 28 26 25 25 25 25 26 26 26 27 27 26 27 27 27 28
25 27 28 30 31 30 29 29 28 29 31 31 32 31 32 32 31 31 30 26 25 25 25 25 24 23 23 23 23 25 25 26 27 27 26 26 25 25 25 26 26 26 26 26 26 26 27 28 28
30 28 32 35 34 30 26 30 29 30 30 32 32 31 30 29 30 31 30 27 26 24 24 25 24 24 24 25 25 25 26 27 26 26 26 26 26 25 25 25 26 26 26 26 26 26 25 27 25
32 32 33 35 35 34 26 26 22 24 29 32 31 32 27 30 28 32 31 30 27 25 25 25 24 24 25 25 25 26 25 26 26 25 26 26 26 25 25 25 25 25 25 25 25 26 26 24 24
35 37 36 36 34 30 28 26 22 25 26 32 32 32 29 27 30 24 31 31 29 27 25 25 25 24 24 24 25 26 26 23 24 26 27 26 26 26 25 25 25 25 25 25 25 26 26 25 26
36 37 36 36 35 29 30 29 28 23 25 28 33 32 32 34 31 29 28 31 31 29 27 26 25 24 25 25 25 26 26 26 27 26 27 26 26 26 26 25 25 25 25 25 25 25 26 25 26
37 36 36 37 36 34 34 25 30 27 25 22 34 35 34 34 33 29 26 28 31 30 29 27 25 25 24 24 25 25 26 26 26 26 26 27 26 26 26 25 25 25 25 26 25 25 25 26 26
36 35 34 34 34 34 36 35 31 33 32 31 34 35 35 35 32 32 32 29 27 31 30 28 26 25 25 25 24 24 25 25 25 25 26 26 26 26 26 25 25 25 25 24 26 25 25 25 26
36 36 34 31 30 30 30 32 33 36 36 36 36 36 36 34 34 31 33 30 29 28 29 25 26 25 25 24 25 24 24 25 25 25 25 25 26 26 25 25 26 26 25 26 26 25 25 26 26
36 35 38 36 37 36 36 36 37 37 36 36 36 35 35 35 34 34 32 33 30 27 25 26 26 25 25 24 25 25 24 25 26 26 25 26 27 26 25 25 26 26 26 26 26 26 26 25 26
36 37 35 36 34 33 35 35 34 35 35 36 35 36 35 34 34 34 34 33 32 28 27 29 26 25 25 25 25 25 24 24 25 25 25 25 25 24 25 24 26 26 26 26 26 25 25 25 25
36 35 36 36 36 34 34 33 36 35 36 35 36 36 35 35 34 34 34 33 33 31 30 30 26 26 26 26 26 25 25 24 25 25 25 25 25 24 24 25 26 25 26 26 25 25 25 25 24
38 36 37 35 34 35 34 31 36 36 36 36 36 35 36 35 34 34 34 33 33 32 28 24 28 27 26 27 27 26 26 25 25 25 26 26 25 25 25 25 25 25 25 26 25 25 25 24 24
Height
757 758 758 756 786 796 786 753 732 741 741 729 730 743 761 765 771 805 780 784 791 797 799 803 805 807 809 810 812 814 815 815 817 818 819 819 821 822 823 824 824 825 825 825 825 824 825 825 826
758 755 755 754 791 819 798 740 749 739 732 729 737 750 760 778 772 779 784 784 790 795 800 804 806 809 811 812 813 815 816 816 817 819 819 821 822 823 824 825 826 825 825 826 826 826 826 825 826
756 751 754 764 796 805 793 742 739 732 726 730 740 746 759 778 773 779 784 786 790 793 799 802 806 810 812 814 815 816 816 817 818 819 820 822 823 825 825 825 826 825 825 825 825 825 826 827 827
752 746 751 768 786 779 765 737 733 734 735 732 737 766 768 774 774 780 784 788 791 794 798 800 807 811 813 815 816 816 818 818 819 820 821 823 824 825 826 826 825 824 825 825 825 827 827 828 828
747 744 783 794 793 784 737 734 734 738 737 741 746 772 777 777 779 784 787 789 793 794 790 802 808 812 815 816 818 818 819 819 820 820 821 824 825 825 826 825 825 825 828 829 830 829 829 829 828
752 758 790 797 797 780 754 730 730 736 740 741 753 768 782 781 783 787 790 794 796 797 800 806 810 814 816 818 819 820 821 820 820 822 823 826 826 825 825 825 827 832 834 833 833 832 832 832 832
750 760 773 782 796 791 748 732 736 736 739 743 743 774 781 782 787 791 793 797 801 803 805 810 813 815 817 819 821 822 821 821 821 822 825 826 825 826 827 829 832 834 833 833 833 835 836 836 835
739 752 774 776 785 787 760 736 734 738 749 735 737 769 784 783 787 792 796 799 803 805 809 812 814 816 818 820 823 823 824 821 822 824 827 827 826 826 828 830 832 833 832 835 833 832 833 836 835
731 784 786 777 781 783 759 750 739 738 744 742 746 754 769 780 786 792 797 800 803 806 809 813 815 817 820 821 824 826 827 827 826 827 827 827 826 826 827 830 833 829 828 824 827 830 831 833 834
750 773 770 761 773 780 766 759 741 745 752 754 758 761 769 779 785 790 797 800 805 806 809 813 815 818 821 823 826 829 830 829 830 830 829 829 829 826 829 830 825 823 818 824 831 832 832 831 831
743 763 763 770 771 772 772 758 739 753 760 755 765 766 768 776 783 788 794 799 802 806 809 811 814 818 821 824 829 830 830 828 829 830 831 828 827 827 827 827 824 827 832 834 840 829 828 831 828
763 749 760 769 775 783 785 767 748 749 750 748 757 762 767 770 779 783 790 798 802 806 810 813 815 818 821 825 828 827 826 825 828 830 829 827 827 827 827 828 823 835 840 830 832 824 822 823 823
767 760 759 770 774 780 775 772 766 757 750 752 758 763 767 767 777 783 792 797 803 806 810 812 815 819 822 825 827 828 827 829 830 829 828 827 827 825 824 826 824 826 830 824 825 816 818 819 818
751 755 759 768 774 771 775 783 766 756 753 758 760 761 764 769 775 786 792 798 803 806 809 812 816 818 821 823 826 825 828 828 827 828 827 827 826 825 823 824 829 827 819 818 820 812 805 809 815
740 758 759 764 768 773 766 791 790 768 754 759 759 759 764 770 777 786 791 797 802 805 809 812 815 818 820 822 825 826 821 824 824 825 827 826 824 824 823 824 825 826 822 818 811 800 810 803 815
749 759 776 763 767 769 767 805 785 766 771 759 758 759 765 770 773 781 789 796 801 805 808 811 814 817 820 822 823 823 824 822 823 825 826 826 825 823 823 821 820 819 814 814 819 814 810 808 819
789 797 780 772 756 766 769 792 784 771 770 761 759 759 765 768 773 779 787 793 799 804 807 810 814 817 819 822 823 822 821 822 822 823 823 825 826 824 822 819 815 813 810 818 818 819 816 812 818
824 807 787 778 761 764 772 779 776 772 762 763 760 761 764 764 770 777 783 790 797 802 807 810 813 816 818 821 822 822 821 821 819 822 822 824 825 824 822 818 817 815 813 819 826 824 818 817 818
796 789 784 760 750 766 770 768 772 767 760 760 758 762 760 763 769 775 780 789 796 800 804 808 811 814 817 820 822 822 821 819 820 821 822 823 824 823 822 821 822 820 821 824 828 818 824 823 823
764 777 756 739 734 753 772 763 769 763 761 754 752 757 761 768 770 771 778 786 794 798 802 806 809 812 815 817 819 820 820 820 820 821 821 822 822 822 823 825 825 825 823 822 822 822 831 826 829
752 757 745 739 734 738 766 793 800 782 766 752 751 748 761 764 769 768 773 780 789 796 799 803 807 810 812 814 816 818 821 820 822 822 820 819 820 820 823 826 826 827 828 825 826 828 833 830 827
740 718 724 733 745 776 761 808 808 775 775 751 747 746 756 761 762 773 770 775 782 789 796 801 804 808 810 813 814 816 822 818 824 820 818 818 818 820 823 826 827 825 825 822 824 823 834 833 831
733 717 726 724 738 766 761 783 775 777 778 766 742 740 742 741 752 763 769 769 772 780 790 797 802 805 808 810 812 813 816 819 816 815 815 818 818 821 825 828 826 824 821 820 820 826 833 835 833
712 726 724 721 726 755 735 789 770 771 772 782 734 727 731 735 745 756 762 765 768 776 784 793 799 802 805 808 809 811 811 812 814 815 816 817 817 820 824 828 827 825 822 821 824 825 830 832 827
725 738 757 763 761 763 721 736 749 728 731 721 724 720 723 729 742 747 751 759 769 770 779 786 794 799 802 805 807 809 810 811 813 814 815 817 816 820 823 827 827 824 823 822 821 822 827 826 824
727 731 753 791 795 785 755 761 752 713 706 706 711 714 720 728 735 742 744 753 764 772 772 784 786 794 797 800 803 806 808 810 811 812 816 815 814 815 820 824 826 826 824 821 821 820 819 818 819
723 736 710 737 721 734 725 724 711 707 712 713 717 720 727 729 731 737 743 748 755 762 766 773 783 788 790 795 799 802 804 807 808 810 814 816 814 815 819 823 825 824 824 822 820 818 817 816 816
720 708 739 730 763 769 742 741 744 728 723 718 721 722 725 728 733 733 739 744 749 754 762 765 768 776 782 788 794 798 801 803 806 808 811 816 816 815 816 819 822 822 820 818 816 814 813 814 815
725 732 727 723 730 757 761 757 716 722 717 720 718 717 721 726 732 735 736 741 744 749 754 761 764 766 775 782 787 793 797 799 802 805 809 813 817 819 818 815 817 816 815 812 811 811 818 821 825
702 715 717 743 749 736 741 764 709 712 714 714 716 720 720 723 730 735 738 740 742 743 749 755 764 759 768 777 782 786 792 795 799 800 803 806 810 814 815 816 816 812 811 809 808 814 822 823 824
Wind_Speed
9 8 10 7 1 4 7 12 12 14 10 18 14 15 21 15 5 10 22 20 24 19 15 14 13 13 12 12 12 10 11 10 10 9 9 11 9 10 11 11 11 11 11 11 11 11 10 10 10
10 14 6 5 4 2 6 14 9 11 11 11 20 16 18 20 16 13 7 16 24 22 18 15 15 14 12 12 11 11 11 11 10 9 11 10 8 8 10 11 10 11 11 11 11 11 10 11 10
10 15 6 2 3 5 5 14 11 10 7 8 15 17 7 7 10 11 18 19 20 25 20 16 16 14 12 12 12 12 11 11 12 12 12 8 8 9 9 10 10 11 11 12 11 10 11 9 9
9 5 3 5 6 8 10 10 15 12 10 7 17 12 11 10 7 15 21 19 22 25 19 19 15 14 13 14 14 13 12 12 13 16 11 8 9 9 9 9 9 10 10 11 11 10 9 8 7
8 6 4 3 8 5 6 11 9 9 13 10 19 19 13 13 23 20 14 19 17 17 19 20 17 15 14 15 15 14 14 14 14 13 10 8 7 7 7 8 8 9 10 10 9 10 9 9 8
7 5 0 2 7 14 21 12 10 11 11 15 19 20 8 17 17 17 18 16 12 14 19 18 16 16 16 16 15 15 15 15 16 10 9 7 7 7 7 8 7 7 8 9 9 9 8 7 7
10 6 8 6 7 18 8 8 6 12 13 13 20 14 12 13 17 20 18 17 15 18 19 17 16 16 17 15 17 17 15 13 12 11 8 7 7 6 8 7 6 7 8 9 9 7 5 5 6
4 5 7 4 12 5 11 12 10 14 13 5 8 10 16 18 18 18 18 17 18 17 19 19 17 15 16 17 17 18 16 13 11 9 6 8 9 8 7 7 7 8 8 7 7 6 5 5 7
11 4 7 1 2 2 16 8 10 12 8 18 17 21 22 24 22 19 17 17 17 15 19 17 17 18 17 17 19 15 13 12 9 6 9 11 11 9 7 7 9 9 9 10 9 7 8 8 7
4 4 5 6 9 8 16 1 8 12 15 15 17 18 29 26 22 20 14 12 19 14 17 19 19 18 17 14 18 17 14 11 7 7 10 11 14 13 12 8 12 13 14 11 9 5 8 11 11
8 3 7 6 7 6 12 15 11 9 14 14 16 15 15 30 23 24 17 20 17 20 14 18 18 19 17 14 18 19 15 10 10 10 15 14 14 11 8 10 12 10 7 5 4 9 12 12 8
4 7 5 8 4 11 15 17 10 3 14 17 16 14 12 10 16 17 18 13 20 17 19 20 19 18 16 21 19 21 17 14 16 12 11 12 10 13 13 11 12 7 22 21 1 17 14 15 8
6 4 9 10 3 18 12 15 15 8 15 14 15 13 11 9 22 18 19 16 16 18 21 19 18 18 15 17 16 15 16 15 10 16 12 11 10 7 6 7 3 12 5 11 3 16 9 4 5
11 10 12 8 7 6 5 5 9 12 13 12 12 13 11 9 16 20 18 20 19 18 18 20 21 16 16 13 8 13 11 18 18 17 10 6 5 8 7 6 10 3 5 3 2 3 8 10 5
15 11 11 9 10 4 8 7 8 19 12 11 13 11 12 13 12 24 23 19 18 19 21 23 15 13 13 12 11 5 15 14 9 14 9 5 4 6 3 9 7 5 1 7 6 8 9 14 9
5 2 4 10 13 7 6 5 12 18 16 10 10 10 10 10 16 21 21 22 21 19 20 19 17 17 12 8 5 5 10 3 12 9 10 7 4 2 5 6 6 6 4 9 5 12 4 10 7
7 7 6 8 14 8 8 6 13 19 17 3 12 11 10 11 11 18 25 25 26 23 21 21 19 16 14 7 4 1 6 9 10 10 15 10 5 5 7 8 6 7 10 7 8 11 11 11 6
8 15 9 6 12 11 11 7 10 16 17 13 13 6 8 12 16 16 25 26 24 27 24 21 20 15 13 10 6 5 8 9 6 7 17 11 7 7 6 8 8 8 10 11 3 2 9 6 8
18 16 14 13 17 12 12 13 13 13 13 12 14 14 15 10 8 18 22 26 23 21 19 23 24 19 15 11 11 13 15 11 10 11 10 8 6 6 9 9 8 9 11 4 11 8 9 10 9
11 9 11 6 12 8 14 15 2 15 15 12 11 10 18 12 13 19 21 25 21 23 22 25 23 22 18 17 16 9 8 9 2 10 10 6 8 8 10 9 6 5 9 8 6 8 11 13 9
18 9 14 5 11 3 9 7 6 16 16 16 12 12 12 11 10 17 21 24 28 25 23 25 22 22 22 18 14 10 2 1 2 9 12 11 9 11 7 5 5 4 5 6 8 7 2 7 19
12 9 4 3 5 5 7 5 6 11 14 17 20 14 17 16 16 3 19 24 26 28 26 28 21 22 22 15 15 13 9 10 15 15 12 14 11 9 6 4 4 4 1 5 11 8 2 3 8
11 3 9 9 10 7 8 2 4 9 7 19 19 22 14 16 21 19 9 23 30 32 29 27 24 21 20 17 13 13 10 13 12 8 14 13 10 8 6 3 4 2 5 3 7 3 3 4 4
9 7 14 13 13 12 14 11 7 12 12 14 22 17 21 20 12 20 35 30 25 31 30 28 28 25 22 20 17 13 10 11 0 4 6 10 11 11 9 6 4 5 3 12 7 5 3 3 7
8 13 12 4 4 9 4 4 8 11 21 16 18 15 15 13 17 12 20 21 27 25 29 29 30 26 24 19 18 17 12 8 8 6 10 12 7 3 15 11 7 5 8 7 4 6 7 6 5
13 15 9 11 3 3 20 10 5 14 10 12 10 11 5 13 15 14 11 25 24 19 16 9 33 28 25 23 21 18 17 14 13 13 12 6 10 4 4 12 9 8 10 5 6 8 6 7 3
9 9 14 9 18 10 9 10 14 17 12 10 13 11 9 2 14 10 12 14 23 27 40 46 33 30 28 25 23 20 19 19 17 17 13 10 7 15 8 11 11 11 9 8 6 6 5 2 1
12 14 9 5 3 5 8 5 11 10 10 10 10 10 12 10 0 11 9 8 20 36 41 31 39 35 30 26 24 22 22 21 19 14 16 13 8 14 20 19 12 11 7 8 8 10 9 6 6
9 9 9 11 9 6 6 8 11 10 9 13 12 11 14 9 9 3 2 16 13 22 27 23 36 32 29 27 26 24 23 22 21 19 17 15 12 17 19 15 13 10 9 11 10 10 10 9 10
7 6 7 8 8 7 11 2 11 10 5 3 8 8 6 8 6 3 2 6 8 11 23 30 29 30 28 27 26 27 25 22 22 21 19 16 15 13 14 16 15 11 11 10 8 8 4 5 14
Wind_Direction
231 223 223 230 79 339 298 92 69 61 35 85 75 77 74 60 37 104 148 150 136 134 130 121 121 116 117 119 122 120 114 109 104 95 92 97 99 104 102 108 109 112 114 112 108 109 108 105 104
244 255 263 256 112 172 294 96 76 65 60 106 80 83 76 70 86 115 116 141 136 133 131 130 121 120 117 120 120 121 123 119 113 106 96 96 106 102 106 116 121 118 115 114 112 112 117 120 114
247 263 272 297 158 166 243 103 108 92 72 98 106 92 51 92 96 131 134 115 139 137 137 136 123 121 120 118 114 117 126 127 121 116 103 106 109 118 119 121 123 127 127 126 128 134 124 118 110
239 248 332 304 349 234 217 73 66 93 93 51 96 77 80 86 103 128 130 107 126 118 127 138 132 128 124 118 114 114 121 132 128 113 95 105 116 115 119 125 137 142 137 133 140 134 128 124 111
236 267 87 52 299 271 83 121 102 83 80 79 93 86 89 95 104 120 131 108 126 132 131 122 123 134 129 125 117 113 124 136 139 112 100 101 110 125 141 150 155 152 149 143 147 146 144 134 121
245 89 108 267 325 294 288 57 85 92 99 123 115 108 98 113 109 115 119 119 133 136 117 118 126 124 127 128 127 121 113 122 132 129 121 127 135 151 153 168 167 161 162 159 160 166 155 137 108
262 266 298 122 175 267 189 128 127 105 102 99 93 109 128 122 117 125 120 123 129 121 120 126 129 127 125 121 126 135 139 136 144 129 132 152 153 149 164 167 166 177 181 188 186 176 165 129 97
306 323 323 199 173 54 272 85 35 90 86 58 94 133 146 141 136 123 134 133 121 129 130 134 133 130 128 130 127 129 141 142 139 131 162 175 176 180 180 188 185 194 198 203 213 205 194 160 147
271 94 282 97 146 95 299 57 90 120 118 71 79 109 132 141 145 139 132 134 134 149 142 140 140 142 144 140 140 137 135 135 152 158 199 198 192 167 202 200 219 203 200 206 204 207 203 190 189
281 247 341 95 143 121 280 0 149 114 114 101 95 104 133 146 147 141 149 157 153 146 149 149 150 148 145 146 140 130 128 152 173 188 213 215 222 200 212 206 224 199 197 203 198 191 226 204 188
292 30 123 103 81 45 318 266 62 116 132 126 124 130 138 157 150 150 165 161 154 158 170 157 158 155 156 156 134 143 151 173 189 221 236 248 244 201 204 200 214 210 199 219 77 241 246 212 218
263 103 119 124 97 59 329 284 101 87 116 119 129 141 136 153 147 152 145 144 144 150 173 163 158 146 161 160 155 168 160 177 184 209 233 239 224 227 219 214 225 132 227 139 131 208 193 186 204
7 136 121 128 110 137 250 36 303 108 98 108 122 134 146 158 141 135 146 153 146 154 158 165 168 164 164 171 185 195 208 216 228 188 212 217 224 249 225 264 330 117 226 252 166 195 168 159 149
187 142 138 157 124 75 99 27 23 117 120 124 153 147 131 143 118 131 138 151 163 167 168 172 162 167 171 188 187 214 223 191 190 192 189 234 200 218 273 269 310 126 180 18 94 189 153 145 134
142 158 157 156 151 119 96 38 301 316 143 165 155 144 120 118 132 144 151 145 166 169 162 160 174 155 169 186 165 177 177 193 197 138 167 222 251 246 285 292 326 347 271 259 229 259 223 150 150
151 64 184 135 171 153 182 179 268 289 309 157 154 131 141 140 145 139 143 147 157 162 169 169 170 166 162 188 223 269 221 301 174 155 163 204 266 192 258 290 265 285 267 300 340 323 293 83 99
333 272 200 149 192 151 180 161 199 257 267 146 161 154 149 150 133 141 149 152 161 167 175 176 170 173 159 178 184 235 207 216 262 183 165 170 209 254 245 268 276 260 283 309 57 281 354 34 49
308 295 289 162 185 195 177 198 180 230 235 169 216 161 170 163 148 148 152 157 162 168 170 173 164 177 156 186 196 198 230 259 221 181 159 168 194 234 247 269 260 269 285 331 50 38 9 16 13
199 249 253 196 203 166 201 196 200 215 224 227 173 189 182 127 131 152 149 137 148 159 167 176 174 174 169 178 199 215 229 256 264 159 141 162 202 223 252 263 247 263 298 30 306 347 317 346 47
199 235 285 137 149 130 236 201 257 196 214 225 215 188 132 161 195 157 150 148 160 166 180 172 175 180 180 188 214 249 226 219 243 166 156 177 201 225 241 258 258 246 303 327 344 325 5 0 4
221 159 261 132 167 117 78 63 37 292 265 211 228 185 136 205 155 168 162 160 159 171 176 179 180 180 189 199 221 228 298 99 124 183 176 179 202 220 223 253 264 355 326 343 310 276 118 142 292
281 345 301 239 218 207 179 181 241 240 277 211 205 198 181 207 172 355 171 172 168 169 174 181 186 182 200 211 214 196 185 214 236 223 211 173 191 217 192 205 241 239 239 207 251 262 5 90 242
268 235 294 266 248 159 218 66 203 241 270 275 215 183 199 194 173 176 274 182 178 171 176 178 183 188 200 213 220 203 207 214 238 137 159 179 186 216 220 178 211 181 266 163 300 30 54 285 285
283 312 258 251 246 232 168 159 196 174 158 273 208 189 176 192 190 159 192 237 177 174 174 178 181 190 204 203 220 214 221 235 235 194 202 208 201 206 220 187 197 180 189 214 264 286 313 317 347
238 251 258 260 343 294 308 64 167 185 185 171 160 160 166 184 186 214 192 150 192 174 174 177 180 188 198 205 210 223 221 227 229 194 212 242 241 225 211 202 174 222 214 227 255 280 279 324 342
209 251 264 254 130 236 281 75 62 154 124 96 79 97 118 170 183 203 217 176 167 165 125 302 174 185 191 200 208 211 219 214 212 226 236 288 269 24 209 198 203 203 207 228 238 270 269 354 296
266 222 259 288 262 244 172 154 164 137 136 135 138 136 130 56 173 202 183 190 175 160 169 200 181 183 184 194 202 207 209 217 215 220 215 242 182 220 257 241 215 218 218 229 235 280 262 199 302
284 301 293 230 297 343 34 357 118 128 146 149 132 167 132 122 28 177 199 230 187 172 192 193 174 178 182 187 198 204 207 216 227 235 205 195 192 203 196 243 222 228 226 230 247 253 268 255 266
196 230 258 290 297 308 246 97 128 135 172 157 175 120 134 125 148 177 250 191 219 182 195 196 171 171 178 188 193 203 204 209 218 223 221 216 197 182 190 206 207 222 232 250 249 261 288 337 294
287 294 254 239 271 314 324 109 41 67 36 116 125 122 90 108 94 121 264 216 242 218 176 206 179 171 181 190 198 197 206 212 215 217 225 223 218 212 198 204 215 228 233 249 254 269 302 300 274